Year,Month,Day,Hour,Minute,Value (Times are PST for temperature in C)
2010,10,19,00,00,5.20
2010,10,19,00,01,5.20
2010,10,19,00,02,5.20
2010,10,19,00,03,5.30
2010,10,19,00,04,5.30
2010,10,19,00,05,5.30
2010,10,19,00,06,5.30
2010,10,19,00,07,5.30
2010,10,19,00,08,5.30
2010,10,19,00,09,5.30
2010,10,19,00,10,5.30
2010,10,19,00,11,5.30
2010,10,19,00,12,5.30
2010,10,19,00,13,5.30
2010,10,19,00,14,5.30
2010,10,19,00,15,5.30
2010,10,19,00,16,5.30
2010,10,19,00,17,5.30
2010,10,19,00,18,5.30
2010,10,19,00,19,5.30
2010,10,19,00,20,5.30
2010,10,19,00,21,5.20
2010,10,19,00,22,5.20
2010,10,19,00,23,5.20
2010,10,19,00,24,5.20
2010,10,19,00,25,5.20
2010,10,19,00,26,5.20
2010,10,19,00,27,5.20
2010,10,19,00,28,5.20
2010,10,19,00,29,5.20
2010,10,19,00,30,5.20
2010,10,19,00,31,5.20
2010,10,19,00,32,5.20
2010,10,19,00,33,5.20
2010,10,19,00,34,5.10
2010,10,19,00,35,5.10
2010,10,19,00,36,5.10
2010,10,19,00,37,5.20
2010,10,19,00,38,5.20
2010,10,19,00,39,5.20
2010,10,19,00,40,5.20
2010,10,19,00,41,5.20
2010,10,19,00,42,5.20
2010,10,19,00,43,5.10
2010,10,19,00,44,5.10
2010,10,19,00,45,5.10
2010,10,19,00,46,5.10
2010,10,19,00,47,5.10
2010,10,19,00,48,5.10
2010,10,19,00,49,5.10
2010,10,19,00,50,5.10
2010,10,19,00,51,5.10
2010,10,19,00,52,5.10
2010,10,19,00,53,5.10
2010,10,19,00,54,5.10
2010,10,19,00,55,5.10
2010,10,19,00,56,5.10
2010,10,19,00,57,5.10
2010,10,19,00,58,5.10
2010,10,19,00,59,5.10
2010,10,19,01,00,5.10
2010,10,19,01,01,5.10
2010,10,19,01,02,5.20
2010,10,19,01,03,5.20
2010,10,19,01,04,5.20
2010,10,19,01,05,5.10
2010,10,19,01,06,5.10
2010,10,19,01,07,5.10
2010,10,19,01,08,5.10
2010,10,19,01,09,5.10
2010,10,19,01,10,5.00
2010,10,19,01,11,4.90
2010,10,19,01,12,4.90
2010,10,19,01,13,4.90
2010,10,19,01,14,4.90
2010,10,19,01,15,4.90
2010,10,19,01,16,4.80
2010,10,19,01,17,4.80
2010,10,19,01,18,4.80
2010,10,19,01,19,4.80
2010,10,19,01,20,4.70
2010,10,19,01,21,4.70
2010,10,19,01,22,4.70
2010,10,19,01,23,4.60
2010,10,19,01,24,4.60
2010,10,19,01,25,4.60
2010,10,19,01,26,4.60
2010,10,19,01,27,4.60
2010,10,19,01,28,4.60
2010,10,19,01,29,4.60
2010,10,19,01,30,4.60
2010,10,19,01,31,4.60
2010,10,19,01,32,4.60
2010,10,19,01,33,4.60
2010,10,19,01,34,4.60
2010,10,19,01,35,4.60
2010,10,19,01,36,4.60
2010,10,19,01,37,4.60
2010,10,19,01,38,4.60
2010,10,19,01,39,4.60
2010,10,19,01,40,4.60
2010,10,19,01,41,4.50
2010,10,19,01,42,4.50
2010,10,19,01,43,4.50
2010,10,19,01,44,4.50
2010,10,19,01,45,4.50
2010,10,19,01,46,4.40
2010,10,19,01,47,4.40
2010,10,19,01,48,4.40
2010,10,19,01,49,4.40
2010,10,19,01,50,4.40
2010,10,19,01,51,4.40
2010,10,19,01,52,4.40
2010,10,19,01,53,4.30
2010,10,19,01,54,4.30
2010,10,19,01,55,4.30
2010,10,19,01,56,4.30
2010,10,19,01,57,4.30
2010,10,19,01,58,4.30
2010,10,19,01,59,4.30
2010,10,19,02,00,4.30
2010,10,19,02,01,4.30
2010,10,19,02,02,4.20
2010,10,19,02,03,4.20
2010,10,19,02,04,4.20
2010,10,19,02,05,4.20
2010,10,19,02,06,4.20
2010,10,19,02,07,4.20
2010,10,19,02,08,4.20
2010,10,19,02,09,4.20
2010,10,19,02,10,4.20
2010,10,19,02,11,4.20
2010,10,19,02,12,4.20
2010,10,19,02,13,4.20
2010,10,19,02,14,4.20
2010,10,19,02,15,4.20
2010,10,19,02,16,4.20
2010,10,19,02,17,4.20
2010,10,19,02,18,4.20
2010,10,19,02,19,4.20
2010,10,19,02,20,4.20
2010,10,19,02,21,4.10
2010,10,19,02,22,4.10
2010,10,19,02,23,4.10
2010,10,19,02,24,4.10
2010,10,19,02,25,4.10
2010,10,19,02,26,4.00
2010,10,19,02,27,4.00
2010,10,19,02,28,4.00
2010,10,19,02,29,4.00
2010,10,19,02,30,4.00
2010,10,19,02,31,4.00
2010,10,19,02,32,4.00
2010,10,19,02,33,3.90
2010,10,19,02,34,3.90
2010,10,19,02,35,3.90
2010,10,19,02,36,3.90
2010,10,19,02,37,3.90
2010,10,19,02,38,3.90
2010,10,19,02,39,3.90
2010,10,19,02,40,3.90
2010,10,19,02,41,3.80
2010,10,19,02,42,3.80
2010,10,19,02,43,3.80
2010,10,19,02,44,3.80
2010,10,19,02,45,3.80
2010,10,19,02,46,3.80
2010,10,19,02,47,3.80
2010,10,19,02,48,3.80
2010,10,19,02,49,3.80
2010,10,19,02,50,3.80
2010,10,19,02,51,3.80
2010,10,19,02,52,3.80
2010,10,19,02,53,3.80
2010,10,19,02,54,3.80
2010,10,19,02,55,3.80
2010,10,19,02,56,3.80
2010,10,19,02,57,3.80
2010,10,19,02,58,3.80
2010,10,19,02,59,3.80
2010,10,19,03,00,3.80
2010,10,19,03,01,3.80
2010,10,19,03,02,3.80
2010,10,19,03,03,3.80
2010,10,19,03,04,3.70
2010,10,19,03,05,3.70
2010,10,19,03,06,3.70
2010,10,19,03,07,3.70
2010,10,19,03,08,3.60
2010,10,19,03,09,3.60
2010,10,19,03,10,3.60
2010,10,19,03,11,3.60
2010,10,19,03,12,3.50
2010,10,19,03,13,3.50
2010,10,19,03,14,3.50
2010,10,19,03,15,3.50
2010,10,19,03,16,3.50
2010,10,19,03,17,3.50
2010,10,19,03,18,3.50
2010,10,19,03,19,3.50
2010,10,19,03,20,3.60
2010,10,19,03,21,3.60
2010,10,19,03,22,3.60
2010,10,19,03,23,3.60
2010,10,19,03,24,3.60
2010,10,19,03,25,3.60
2010,10,19,03,26,3.60
2010,10,19,03,27,3.70
2010,10,19,03,28,3.70
2010,10,19,03,29,3.70
2010,10,19,03,30,3.70
2010,10,19,03,31,3.70
2010,10,19,03,32,3.70
2010,10,19,03,33,3.70
2010,10,19,03,34,3.70
2010,10,19,03,35,3.70
2010,10,19,03,36,3.60
2010,10,19,03,37,3.60
2010,10,19,03,38,3.60
2010,10,19,03,39,3.60
2010,10,19,03,40,3.60
2010,10,19,03,41,3.60
2010,10,19,03,42,3.60
2010,10,19,03,43,3.60
2010,10,19,03,44,3.60
2010,10,19,03,45,3.70
2010,10,19,03,46,3.70
2010,10,19,03,47,3.70
2010,10,19,03,48,3.60
2010,10,19,03,49,3.60
2010,10,19,03,50,3.60
2010,10,19,03,51,3.60
2010,10,19,03,52,3.60
2010,10,19,03,53,3.60
2010,10,19,03,54,3.60
2010,10,19,03,55,3.60
2010,10,19,03,56,3.60
2010,10,19,03,57,3.60
2010,10,19,03,58,3.60
2010,10,19,03,59,3.60
2010,10,19,04,00,3.60
2010,10,19,04,01,3.60
2010,10,19,04,02,3.60
2010,10,19,04,03,3.60
2010,10,19,04,04,3.60
2010,10,19,04,05,3.70
2010,10,19,04,06,3.70
2010,10,19,04,07,3.70
2010,10,19,04,08,3.70
2010,10,19,04,09,3.70
2010,10,19,04,10,3.70
2010,10,19,04,11,3.70
2010,10,19,04,12,3.70
2010,10,19,04,13,3.70
2010,10,19,04,14,3.60
2010,10,19,04,15,3.60
2010,10,19,04,16,3.60
2010,10,19,04,17,3.60
2010,10,19,04,18,3.60
2010,10,19,04,19,3.70
2010,10,19,04,20,3.70
2010,10,19,04,21,3.70
2010,10,19,04,22,3.70
2010,10,19,04,23,3.80
2010,10,19,04,24,3.80
2010,10,19,04,25,3.80
2010,10,19,04,26,3.80
2010,10,19,04,27,3.80
2010,10,19,04,28,3.80
2010,10,19,04,29,3.80
2010,10,19,04,30,3.90
2010,10,19,04,31,3.90
2010,10,19,04,32,3.90
2010,10,19,04,33,3.90
2010,10,19,04,34,3.90
2010,10,19,04,35,3.90
2010,10,19,04,36,3.90
2010,10,19,04,37,4.00
2010,10,19,04,38,4.00
2010,10,19,04,39,4.00
2010,10,19,04,40,4.10
2010,10,19,04,41,4.10
2010,10,19,04,42,4.10
2010,10,19,04,43,4.20
2010,10,19,04,44,4.20
2010,10,19,04,45,4.20
2010,10,19,04,46,4.20
2010,10,19,04,47,4.30
2010,10,19,04,48,4.30
2010,10,19,04,49,4.40
2010,10,19,04,50,4.40
2010,10,19,04,51,4.40
2010,10,19,04,52,4.40
2010,10,19,04,53,4.50
2010,10,19,04,54,4.50
2010,10,19,04,55,4.50
2010,10,19,04,56,4.50
2010,10,19,04,57,4.50
2010,10,19,04,58,4.50
2010,10,19,04,59,4.50
2010,10,19,05,00,4.60
2010,10,19,05,01,4.60
2010,10,19,05,02,4.60
2010,10,19,05,03,4.60
2010,10,19,05,04,4.60
2010,10,19,05,05,4.60
2010,10,19,05,06,4.60
2010,10,19,05,07,4.70
2010,10,19,05,08,4.70
2010,10,19,05,09,4.70
2010,10,19,05,10,4.70
2010,10,19,05,11,4.80
2010,10,19,05,12,4.80
2010,10,19,05,13,4.80
2010,10,19,05,14,4.80
2010,10,19,05,15,4.90
2010,10,19,05,16,4.90
2010,10,19,05,17,4.90
2010,10,19,05,18,4.90
2010,10,19,05,19,4.90
2010,10,19,05,20,4.90
2010,10,19,05,21,4.90
2010,10,19,05,22,4.90
2010,10,19,05,23,4.90
2010,10,19,05,24,4.90
2010,10,19,05,25,4.90
2010,10,19,05,26,5.00
2010,10,19,05,27,5.10
2010,10,19,05,28,5.10
2010,10,19,05,29,5.10
2010,10,19,05,30,5.10
2010,10,19,05,31,5.10
2010,10,19,05,32,5.10
2010,10,19,05,33,5.10
2010,10,19,05,34,5.10
2010,10,19,05,35,5.10
2010,10,19,05,36,5.10
2010,10,19,05,37,5.10
2010,10,19,05,38,5.10
2010,10,19,05,39,5.10
2010,10,19,05,40,5.10
2010,10,19,05,41,5.10
2010,10,19,05,42,5.10
2010,10,19,05,43,5.10
2010,10,19,05,44,5.10
2010,10,19,05,45,5.20
2010,10,19,05,46,5.20
2010,10,19,05,47,5.20
2010,10,19,05,48,5.20
2010,10,19,05,49,5.20
2010,10,19,05,50,5.20
2010,10,19,05,51,5.20
2010,10,19,05,52,5.20
2010,10,19,05,53,5.20
2010,10,19,05,54,5.20
2010,10,19,05,55,5.20
2010,10,19,05,56,5.20
2010,10,19,05,57,5.20
2010,10,19,05,58,5.20
2010,10,19,05,59,5.20
2010,10,19,06,00,5.20
2010,10,19,06,01,5.20
2010,10,19,06,02,5.20
2010,10,19,06,03,5.20
2010,10,19,06,04,5.20
2010,10,19,06,05,5.20
2010,10,19,06,06,5.20
2010,10,19,06,07,5.20
2010,10,19,06,08,5.20
2010,10,19,06,09,5.30
2010,10,19,06,10,5.30
2010,10,19,06,11,5.30
2010,10,19,06,12,5.30
2010,10,19,06,13,5.30
2010,10,19,06,14,5.30
2010,10,19,06,15,5.30
2010,10,19,06,16,5.30
2010,10,19,06,17,5.30
2010,10,19,06,18,5.30
2010,10,19,06,19,5.30
2010,10,19,06,20,5.30
2010,10,19,06,21,5.30
2010,10,19,06,22,5.30
2010,10,19,06,23,5.30
2010,10,19,06,24,5.30
2010,10,19,06,25,5.30
2010,10,19,06,26,5.30
2010,10,19,06,27,5.40
2010,10,19,06,28,5.40
2010,10,19,06,29,5.40
2010,10,19,06,30,5.40
2010,10,19,06,31,5.40
2010,10,19,06,32,5.40
2010,10,19,06,33,5.40
2010,10,19,06,34,5.40
2010,10,19,06,35,5.40
2010,10,19,06,36,5.40
2010,10,19,06,37,5.40
2010,10,19,06,38,5.40
2010,10,19,06,39,5.40
2010,10,19,06,40,5.40
2010,10,19,06,41,5.50
2010,10,19,06,42,5.50
2010,10,19,06,43,5.50
2010,10,19,06,44,5.50
2010,10,19,06,45,5.50
2010,10,19,06,46,5.50
2010,10,19,06,47,5.50
2010,10,19,06,48,5.50
2010,10,19,06,49,5.50
2010,10,19,06,50,5.50
2010,10,19,06,51,5.50
2010,10,19,06,52,5.50
2010,10,19,06,53,5.40
2010,10,19,06,54,5.40
2010,10,19,06,55,5.40
2010,10,19,06,56,5.40
2010,10,19,06,57,5.40
2010,10,19,06,58,5.40
2010,10,19,06,59,5.40
2010,10,19,07,00,5.40
2010,10,19,07,01,5.40
2010,10,19,07,02,5.30
2010,10,19,07,03,5.30
2010,10,19,07,04,5.30
2010,10,19,07,05,5.30
2010,10,19,07,06,5.30
2010,10,19,07,07,5.30
2010,10,19,07,08,5.30
2010,10,19,07,09,5.30
2010,10,19,07,10,5.30
2010,10,19,07,11,5.30
2010,10,19,07,12,5.30
2010,10,19,07,13,5.30
2010,10,19,07,14,5.30
2010,10,19,07,15,5.30
2010,10,19,07,16,5.30
2010,10,19,07,17,5.30
2010,10,19,07,18,5.30
2010,10,19,07,19,5.30
2010,10,19,07,20,5.20
2010,10,19,07,21,5.20
2010,10,19,07,22,5.20
2010,10,19,07,23,5.20
2010,10,19,07,24,5.20
2010,10,19,07,25,5.10
2010,10,19,07,26,5.10
2010,10,19,07,27,5.10
2010,10,19,07,28,5.10
2010,10,19,07,29,5.10
2010,10,19,07,30,5.10
2010,10,19,07,31,5.10
2010,10,19,07,32,5.10
2010,10,19,07,33,5.10
2010,10,19,07,34,5.10
2010,10,19,07,35,5.00
2010,10,19,07,36,4.90
2010,10,19,07,37,4.90
2010,10,19,07,38,4.90
2010,10,19,07,39,4.90
2010,10,19,07,40,4.90
2010,10,19,07,41,4.90
2010,10,19,07,42,4.90
2010,10,19,07,43,4.90
2010,10,19,07,44,4.90
2010,10,19,07,45,4.90
2010,10,19,07,46,4.90
2010,10,19,07,47,5.00
2010,10,19,07,48,5.00
2010,10,19,07,49,5.10
2010,10,19,07,50,5.10
2010,10,19,07,51,4.90
2010,10,19,07,52,4.90
2010,10,19,07,53,4.90
2010,10,19,07,54,4.90
2010,10,19,07,55,4.90
2010,10,19,07,56,4.90
2010,10,19,07,57,4.90
2010,10,19,07,58,4.90
2010,10,19,07,59,4.90
2010,10,19,08,00,4.90
2010,10,19,08,01,4.90
2010,10,19,08,02,4.90
2010,10,19,08,03,4.90
2010,10,19,08,04,4.90
2010,10,19,08,05,4.90
2010,10,19,08,06,4.90
2010,10,19,08,07,4.90
2010,10,19,08,08,4.90
2010,10,19,08,09,4.90
2010,10,19,08,10,4.90
2010,10,19,08,11,4.90
2010,10,19,08,12,4.90
2010,10,19,08,13,4.90
2010,10,19,08,14,4.90
2010,10,19,08,15,4.90
2010,10,19,08,16,4.90
2010,10,19,08,17,4.90
2010,10,19,08,18,4.90
2010,10,19,08,19,4.90
2010,10,19,08,20,4.90
2010,10,19,08,21,4.90
2010,10,19,08,22,4.90
2010,10,19,08,23,4.90
2010,10,19,08,24,4.90
2010,10,19,08,25,4.90
2010,10,19,08,26,4.90
2010,10,19,08,27,4.90
2010,10,19,08,28,4.90
2010,10,19,08,29,4.90
2010,10,19,08,30,4.90
2010,10,19,08,31,4.90
2010,10,19,08,32,4.90
2010,10,19,08,33,5.00
2010,10,19,08,34,5.10
2010,10,19,08,35,5.10
2010,10,19,08,36,5.10
2010,10,19,08,37,5.20
2010,10,19,08,38,5.20
2010,10,19,08,39,5.30
2010,10,19,08,40,5.30
2010,10,19,08,41,5.40
2010,10,19,08,42,5.40
2010,10,19,08,43,5.40
2010,10,19,08,44,5.50
2010,10,19,08,45,5.50
2010,10,19,08,46,5.50
2010,10,19,08,47,5.50
2010,10,19,08,48,5.60
2010,10,19,08,49,5.60
2010,10,19,08,50,5.60
2010,10,19,08,51,5.70
2010,10,19,08,52,5.70
2010,10,19,08,53,5.70
2010,10,19,08,54,5.70
2010,10,19,08,55,5.80
2010,10,19,08,56,5.80
2010,10,19,08,57,5.90
2010,10,19,08,58,5.90
2010,10,19,08,59,6.00
2010,10,19,09,00,6.10
2010,10,19,09,01,6.20
2010,10,19,09,02,6.20
2010,10,19,09,03,6.30
2010,10,19,09,04,6.40
2010,10,19,09,05,6.40
2010,10,19,09,06,6.40
2010,10,19,09,07,6.50
2010,10,19,09,08,6.60
2010,10,19,09,09,6.60
2010,10,19,09,10,6.60
2010,10,19,09,11,6.70
2010,10,19,09,12,6.80
2010,10,19,09,13,6.80
2010,10,19,09,14,6.80
2010,10,19,09,15,6.90
2010,10,19,09,16,6.90
2010,10,19,09,17,7.00
2010,10,19,09,18,7.00
2010,10,19,09,19,7.10
2010,10,19,09,20,7.20
2010,10,19,09,21,7.20
2010,10,19,09,22,7.20
2010,10,19,09,23,7.30
2010,10,19,09,24,7.30
2010,10,19,09,25,7.40
2010,10,19,09,26,7.40
2010,10,19,09,27,7.50
2010,10,19,09,28,7.60
2010,10,19,09,29,7.70
2010,10,19,09,30,7.80
2010,10,19,09,31,7.80
2010,10,19,09,32,7.80
2010,10,19,09,33,7.80
2010,10,19,09,34,7.90
2010,10,19,09,35,7.90
2010,10,19,09,36,7.90
2010,10,19,09,37,8.00
2010,10,19,09,38,8.00
2010,10,19,09,39,8.10
2010,10,19,09,40,8.20
2010,10,19,09,41,8.30
2010,10,19,09,42,8.40
2010,10,19,09,43,8.50
2010,10,19,09,44,8.60
2010,10,19,09,45,8.70
2010,10,19,09,46,8.80
2010,10,19,09,47,8.90
2010,10,19,09,48,9.00
2010,10,19,09,49,9.00
2010,10,19,09,50,9.20
2010,10,19,09,51,9.20
2010,10,19,09,52,9.20
2010,10,19,09,53,9.30
2010,10,19,09,54,9.40
2010,10,19,09,55,9.50
2010,10,19,09,56,9.60
2010,10,19,09,57,9.70
2010,10,19,09,58,9.70
2010,10,19,09,59,9.70
2010,10,19,10,00,9.80
2010,10,19,10,01,9.90
2010,10,19,10,02,9.90
2010,10,19,10,03,10.10
2010,10,19,10,04,10.10
2010,10,19,10,05,10.20
2010,10,19,10,06,10.30
2010,10,19,10,07,10.40
2010,10,19,10,08,10.40
2010,10,19,10,09,10.50
2010,10,19,10,10,10.60
2010,10,19,10,11,10.70
2010,10,19,10,12,10.80
2010,10,19,10,13,10.90
2010,10,19,10,14,11.00
2010,10,19,10,15,11.10
2010,10,19,10,16,11.20
2010,10,19,10,17,11.30
2010,10,19,10,18,11.40
2010,10,19,10,19,11.50
2010,10,19,10,20,11.60
2010,10,19,10,21,11.60
2010,10,19,10,22,11.70
2010,10,19,10,23,11.80
2010,10,19,10,24,11.80
2010,10,19,10,25,11.90
2010,10,19,10,26,11.90
2010,10,19,10,27,12.00
2010,10,19,10,28,12.10
2010,10,19,10,29,12.20
2010,10,19,10,30,12.30
2010,10,19,10,31,12.40
2010,10,19,10,32,12.50
2010,10,19,10,33,12.60
2010,10,19,10,34,12.60
2010,10,19,10,35,12.60
2010,10,19,10,36,12.70
2010,10,19,10,37,12.70
2010,10,19,10,38,12.70
2010,10,19,10,39,12.80
2010,10,19,10,40,12.90
2010,10,19,10,41,13.00
2010,10,19,10,42,13.10
2010,10,19,10,43,13.10
2010,10,19,10,44,13.10
2010,10,19,10,45,13.00
2010,10,19,10,46,13.00
2010,10,19,10,47,13.10
2010,10,19,10,48,13.20
2010,10,19,10,49,13.30
2010,10,19,10,50,13.40
2010,10,19,10,51,13.50
2010,10,19,10,52,13.60
2010,10,19,10,53,13.70
2010,10,19,10,54,13.80
2010,10,19,10,55,13.90
2010,10,19,10,56,14.00
2010,10,19,10,57,14.10
2010,10,19,10,58,14.20
2010,10,19,10,59,14.20
2010,10,19,11,00,14.20
2010,10,19,11,01,14.20
2010,10,19,11,02,14.30
2010,10,19,11,03,14.40
2010,10,19,11,04,14.50
2010,10,19,11,05,14.40
2010,10,19,11,06,14.40
2010,10,19,11,07,14.30
2010,10,19,11,08,14.20
2010,10,19,11,09,14.20
2010,10,19,11,10,14.10
2010,10,19,11,11,14.10
2010,10,19,11,12,14.10
2010,10,19,11,13,14.10
2010,10,19,11,14,14.10
2010,10,19,11,15,14.20
2010,10,19,11,16,14.20
2010,10,19,11,17,14.30
2010,10,19,11,18,14.40
2010,10,19,11,19,14.50
2010,10,19,11,20,14.50
2010,10,19,11,21,14.50
2010,10,19,11,22,14.60
2010,10,19,11,23,14.60
2010,10,19,11,24,14.60
2010,10,19,11,25,14.60
2010,10,19,11,26,14.60
2010,10,19,11,27,14.50
2010,10,19,11,28,14.50
2010,10,19,11,29,14.50
2010,10,19,11,30,14.40
2010,10,19,11,31,14.40
2010,10,19,11,32,14.30
2010,10,19,11,33,14.30
2010,10,19,11,34,14.20
2010,10,19,11,35,14.20
2010,10,19,11,36,14.30
2010,10,19,11,37,14.40
2010,10,19,11,38,14.50
2010,10,19,11,39,14.60
2010,10,19,11,40,14.60
2010,10,19,11,41,14.70
2010,10,19,11,42,14.80
2010,10,19,11,43,14.80
2010,10,19,11,44,14.90
2010,10,19,11,45,15.00
2010,10,19,11,46,15.10
2010,10,19,11,47,15.10
2010,10,19,11,48,15.20
2010,10,19,11,49,15.30
2010,10,19,11,50,15.30
2010,10,19,11,51,15.40
2010,10,19,11,52,15.40
2010,10,19,11,53,15.50
2010,10,19,11,54,15.50
2010,10,19,11,55,15.60
2010,10,19,11,56,15.60
2010,10,19,11,57,15.60
2010,10,19,11,58,15.60
2010,10,19,11,59,15.50
2010,10,19,12,00,15.50
2010,10,19,12,01,15.40
2010,10,19,12,02,15.30
2010,10,19,12,03,15.30
2010,10,19,12,04,15.30
2010,10,19,12,05,15.30
2010,10,19,12,06,15.30
2010,10,19,12,07,15.30
2010,10,19,12,08,15.30
2010,10,19,12,09,15.30
2010,10,19,12,10,15.30
2010,10,19,12,11,15.30
2010,10,19,12,12,15.40
2010,10,19,12,13,15.40
2010,10,19,12,14,15.30
2010,10,19,12,15,15.30
2010,10,19,12,16,15.30
2010,10,19,12,17,15.30
2010,10,19,12,18,15.30
2010,10,19,12,19,15.40
2010,10,19,12,20,15.50
2010,10,19,12,21,15.50
2010,10,19,12,22,15.50
2010,10,19,12,23,15.50
2010,10,19,12,24,15.40
2010,10,19,12,25,15.50
2010,10,19,12,26,15.50
2010,10,19,12,27,15.60
2010,10,19,12,28,15.70
2010,10,19,12,29,15.80
2010,10,19,12,30,15.90
2010,10,19,12,31,16.00
2010,10,19,12,32,16.10
2010,10,19,12,33,16.10
2010,10,19,12,34,16.20
2010,10,19,12,35,16.30
2010,10,19,12,36,16.40
2010,10,19,12,37,16.40
2010,10,19,12,38,16.50
2010,10,19,12,39,16.60
2010,10,19,12,40,16.70
2010,10,19,12,41,16.60
2010,10,19,12,42,16.60
2010,10,19,12,43,16.70
2010,10,19,12,44,16.70
2010,10,19,12,45,16.80
2010,10,19,12,46,16.80
2010,10,19,12,47,16.90
2010,10,19,12,48,16.90
2010,10,19,12,49,16.70
2010,10,19,12,50,16.70
2010,10,19,12,51,16.70
2010,10,19,12,52,16.70
2010,10,19,12,53,16.70
2010,10,19,12,54,16.80
2010,10,19,12,55,16.90
2010,10,19,12,56,17.00
2010,10,19,12,57,17.00
2010,10,19,12,58,17.10
2010,10,19,12,59,17.10
2010,10,19,13,00,17.00
2010,10,19,13,01,16.90
2010,10,19,13,02,16.90
2010,10,19,13,03,16.90
2010,10,19,13,04,17.00
2010,10,19,13,05,17.00
2010,10,19,13,06,17.00
2010,10,19,13,07,17.10
2010,10,19,13,08,17.20
2010,10,19,13,09,17.20
2010,10,19,13,10,17.20
2010,10,19,13,11,17.20
2010,10,19,13,12,17.20
2010,10,19,13,13,17.10
2010,10,19,13,14,17.10
2010,10,19,13,15,17.00
2010,10,19,13,16,17.00
2010,10,19,13,17,16.90
2010,10,19,13,18,17.00
2010,10,19,13,19,17.00
2010,10,19,13,20,17.10
2010,10,19,13,21,17.00
2010,10,19,13,22,17.00
2010,10,19,13,23,17.10
2010,10,19,13,24,17.10
2010,10,19,13,25,17.20
2010,10,19,13,26,17.30
2010,10,19,13,27,17.30
2010,10,19,13,28,17.30
2010,10,19,13,29,17.40
2010,10,19,13,30,17.50
2010,10,19,13,31,17.50
2010,10,19,13,32,17.60
2010,10,19,13,33,17.60
2010,10,19,13,34,17.60
2010,10,19,13,35,17.70
2010,10,19,13,36,17.80
2010,10,19,13,37,17.80
2010,10,19,13,38,17.90
2010,10,19,13,39,17.90
2010,10,19,13,40,17.90
2010,10,19,13,41,18.00
2010,10,19,13,42,18.10
2010,10,19,13,43,18.20
2010,10,19,13,44,18.20
2010,10,19,13,45,18.20
2010,10,19,13,46,18.30
2010,10,19,13,47,18.30
2010,10,19,13,48,18.20
2010,10,19,13,49,18.20
2010,10,19,13,50,18.20
2010,10,19,13,51,18.20
2010,10,19,13,52,18.20
2010,10,19,13,53,18.20
2010,10,19,13,54,18.20
2010,10,19,13,55,18.30
2010,10,19,13,56,18.30
2010,10,19,13,57,18.20
2010,10,19,13,58,18.20
2010,10,19,13,59,18.20
2010,10,19,14,00,18.10
2010,10,19,14,01,18.20
2010,10,19,14,02,18.20
2010,10,19,14,03,18.20
2010,10,19,14,04,18.20
2010,10,19,14,05,18.30
2010,10,19,14,06,18.40
2010,10,19,14,07,18.50
2010,10,19,14,08,18.60
2010,10,19,14,09,18.70
2010,10,19,14,10,18.80
2010,10,19,14,11,18.90
2010,10,19,14,12,18.90
2010,10,19,14,13,18.90
2010,10,19,14,14,19.00
2010,10,19,14,15,19.10
2010,10,19,14,16,19.10
2010,10,19,14,17,19.10
2010,10,19,14,18,19.10
2010,10,19,14,19,19.10
2010,10,19,14,20,19.10
2010,10,19,14,21,19.10
2010,10,19,14,22,19.10
2010,10,19,14,23,19.10
2010,10,19,14,24,19.10
2010,10,19,14,25,19.10
2010,10,19,14,26,19.10
2010,10,19,14,27,19.10
2010,10,19,14,28,19.10
2010,10,19,14,29,19.10
2010,10,19,14,30,19.10
2010,10,19,14,31,19.00
2010,10,19,14,32,18.90
2010,10,19,14,33,19.00
2010,10,19,14,34,19.10
2010,10,19,14,35,19.10
2010,10,19,14,36,19.20
2010,10,19,14,37,19.30
2010,10,19,14,38,19.30
2010,10,19,14,39,19.30
2010,10,19,14,40,19.30
2010,10,19,14,41,19.20
2010,10,19,14,42,19.20
2010,10,19,14,43,19.10
2010,10,19,14,44,19.10
2010,10,19,14,45,19.10
2010,10,19,14,46,19.10
2010,10,19,14,47,19.10
2010,10,19,14,48,19.20
2010,10,19,14,49,19.20
2010,10,19,14,50,19.20
2010,10,19,14,51,19.20
2010,10,19,14,52,19.30
2010,10,19,14,53,19.30
2010,10,19,14,54,19.30
2010,10,19,14,55,19.30
2010,10,19,14,56,19.30
2010,10,19,14,57,19.30
2010,10,19,14,58,19.30
2010,10,19,14,59,19.30
2010,10,19,15,00,19.20
2010,10,19,15,01,19.00
2010,10,19,15,02,18.90
2010,10,19,15,03,18.70
2010,10,19,15,04,18.60
2010,10,19,15,05,18.40
2010,10,19,15,06,18.30
2010,10,19,15,07,18.20
2010,10,19,15,08,18.10
2010,10,19,15,09,18.00
2010,10,19,15,10,17.90
2010,10,19,15,11,17.80
2010,10,19,15,12,17.80
2010,10,19,15,13,17.80
2010,10,19,15,14,17.70
2010,10,19,15,15,17.70
2010,10,19,15,16,17.70
2010,10,19,15,17,17.60
2010,10,19,15,18,17.60
2010,10,19,15,19,17.50
2010,10,19,15,20,17.50
2010,10,19,15,21,17.50
2010,10,19,15,22,17.50
2010,10,19,15,23,17.50
2010,10,19,15,24,17.60
2010,10,19,15,25,17.60
2010,10,19,15,26,17.60
2010,10,19,15,27,17.60
2010,10,19,15,28,17.50
2010,10,19,15,29,17.50
2010,10,19,15,30,17.50
2010,10,19,15,31,17.40
2010,10,19,15,32,17.40
2010,10,19,15,33,17.40
2010,10,19,15,34,17.40
2010,10,19,15,35,17.30
2010,10,19,15,36,17.30
2010,10,19,15,37,17.20
2010,10,19,15,38,17.20
2010,10,19,15,39,17.20
2010,10,19,15,40,17.20
2010,10,19,15,41,17.20
2010,10,19,15,42,17.20
2010,10,19,15,43,17.20
2010,10,19,15,44,17.20
2010,10,19,15,45,17.20
2010,10,19,15,46,17.20
2010,10,19,15,47,17.20
2010,10,19,15,48,17.20
2010,10,19,15,49,17.20
2010,10,19,15,50,17.20
2010,10,19,15,51,17.20
2010,10,19,15,52,17.20
2010,10,19,15,53,17.20
2010,10,19,15,54,17.20
2010,10,19,15,55,17.20
2010,10,19,15,56,17.30
2010,10,19,15,57,17.30
2010,10,19,15,58,17.20
2010,10,19,15,59,17.20
2010,10,19,16,00,17.30
2010,10,19,16,01,17.30
2010,10,19,16,02,17.30
2010,10,19,16,03,17.30
2010,10,19,16,04,17.30
2010,10,19,16,05,17.30
2010,10,19,16,06,17.30
2010,10,19,16,07,17.30
2010,10,19,16,08,17.30
2010,10,19,16,09,17.30
2010,10,19,16,10,17.30
2010,10,19,16,11,17.40
2010,10,19,16,12,17.40
2010,10,19,16,13,17.40
2010,10,19,16,14,17.40
2010,10,19,16,15,17.40
2010,10,19,16,16,17.50
2010,10,19,16,17,17.50
2010,10,19,16,18,17.50
2010,10,19,16,19,17.50
2010,10,19,16,20,17.60
2010,10,19,16,21,17.50
2010,10,19,16,22,17.50
2010,10,19,16,23,17.40
2010,10,19,16,24,17.40
2010,10,19,16,25,17.40
2010,10,19,16,26,17.40
2010,10,19,16,27,17.30
2010,10,19,16,28,17.30
2010,10,19,16,29,17.30
2010,10,19,16,30,17.30
2010,10,19,16,31,17.30
2010,10,19,16,32,17.30
2010,10,19,16,33,17.30
2010,10,19,16,34,17.30
2010,10,19,16,35,17.30
2010,10,19,16,36,17.20
2010,10,19,16,37,17.20
2010,10,19,16,38,17.20
2010,10,19,16,39,17.20
2010,10,19,16,40,17.20
2010,10,19,16,41,17.20
2010,10,19,16,42,17.20
2010,10,19,16,43,17.10
2010,10,19,16,44,17.10
2010,10,19,16,45,17.10
2010,10,19,16,46,17.10
2010,10,19,16,47,17.10
2010,10,19,16,48,17.10
2010,10,19,16,49,17.10
2010,10,19,16,50,17.20
2010,10,19,16,51,17.20
2010,10,19,16,52,17.20
2010,10,19,16,53,17.20
2010,10,19,16,54,17.20
2010,10,19,16,55,17.30
2010,10,19,16,56,17.30
2010,10,19,16,57,17.30
2010,10,19,16,58,17.30
2010,10,19,16,59,17.30
2010,10,19,17,00,17.30
2010,10,19,17,01,17.40
2010,10,19,17,02,17.40
2010,10,19,17,03,17.50
2010,10,19,17,04,17.60
2010,10,19,17,05,17.60
2010,10,19,17,06,17.60
2010,10,19,17,07,17.60
2010,10,19,17,08,17.60
2010,10,19,17,09,17.60
2010,10,19,17,10,17.50
2010,10,19,17,11,17.50
2010,10,19,17,12,17.50
2010,10,19,17,13,17.40
2010,10,19,17,14,17.40
2010,10,19,17,15,17.40
2010,10,19,17,16,17.40
2010,10,19,17,17,17.10
2010,10,19,17,18,17.10
2010,10,19,17,19,17.00
2010,10,19,17,20,17.00
2010,10,19,17,21,17.00
2010,10,19,17,22,16.90
2010,10,19,17,23,16.90
2010,10,19,17,24,16.90
2010,10,19,17,25,16.80
2010,10,19,17,26,16.80
2010,10,19,17,27,16.80
2010,10,19,17,28,16.70
2010,10,19,17,29,16.70
2010,10,19,17,30,16.70
2010,10,19,17,31,16.70
2010,10,19,17,32,16.60
2010,10,19,17,33,16.60
2010,10,19,17,34,16.60
2010,10,19,17,35,16.50
2010,10,19,17,36,16.40
2010,10,19,17,37,16.40
2010,10,19,17,38,16.40
2010,10,19,17,39,16.40
2010,10,19,17,40,16.30
2010,10,19,17,41,16.30
2010,10,19,17,42,16.20
2010,10,19,17,43,16.20
2010,10,19,17,44,16.20
2010,10,19,17,45,16.10